Weather in Písek

Czech Republic     49°18′34″N   14°09′03″E
temp.,
°C
wind,
m/s
gust,
m/s
humid.,
%
clouds,
%
prec.,
mm/h
press.,
hPa
HPBL,
m
17 april, sat
sat1723:00+1w1296100 0.0 102458
02:00+1wnw2499100 0.0 1023169
05:00+1wnw2491100 0.0 1022444
08:00+2wnw238489 0.0 1022456
11:00+3nnw348695 0.2 1021615
14:00+5nnw3373100 0.3 1020994
17:00+5n3367100 0.1 10201167
20:00+3n1388100 0.1 1021270
18 april, sun
sun1823:00+3nw1292100 0.0 1021157
02:00+2nw1194100 0.1 102148
05:00+2nnw1194100 0.0 102046
08:00+3nnw1287100 0.0 1020251
11:00+6n2273100 0.0 1019898
14:00+6nne3384100 0.2 1019572
17:00+8n1268100 0.1 1018863
20:00+6n2279100 0.1 101918
19 april, mon
mon1923:00+4wnw1186100 0.0 101911
02:00+4wnw1185100 0.0 101932
05:00+5wnw2388100 0.1 1018114
08:00+6nnw1387100 0.1 1018248
11:00+8nnw3477100 0.3 1017781
14:00+10n3363100 0.6 10161108
17:00+10n3464100 0.5 10141089
20:00+7nne1291100 1.8 101550
20 april, tue
tue2023:00+6nnw2497100 1.2 1015231
02:00+5nne3794100 2.0 1015339
05:00+5nnw2596100 0.1 1015238
08:00+6n269398 0.7 1016427
11:00+10ne346475 0.4 10151272
14:00+11n335783 0.9 10141334
17:00+12nnw34568 0.6 10131377
20:00+7nnw117933 1.1 101410
21 april, wed
wed2123:00+7sw218980 0.9 101623
02:00+4w11915 1.1 101610
05:00+4w229395 0.3 101736
08:00+6sw229022 0.4 1017101
11:00+11nw465910 0.4 10171414
14:00+14nw464271 0.5 10162305
17:00+13nw36445 0.0 10161746
20:00+7ne227175 0.0 101812